Location: ??????
(56.0120°N, 39.1740°E)
Time: 07:54:18
(UTC+00:00)

Okean 1 Rocket - Pass Details

Date: 14 April 2026
Orbit: 601 x 625 km, 82.5° (Epoch: 14 May)

Event Time Altitude Azimuth Distance (km) Brightness Sun altitude
Exits shadow 21:53:46 45° 280° (W) 836 3.6 -24.0°
Maximum altitude 21:53:58 45° 289° (WNW) 833 3.7 -24.0°
Drops below altitude 10° 21:58:09 10° 3° (N) 1,970 6.7 -23.9°
Sets 22:00:29 0° 10° (N) 2,882 7.9 -23.9°
